• In Russia
  • List of Countries
  • For 7 days
  • Water Temperature
  • Weather Map
  • Weather Widgets
  • user-avatar
    Login

    Hourly Weather Laszkar Gah

    Today, 24 January, Friday

    Time Temperature Precipitation Wind Pressure Humidity
    00:00 +9°C° 0 mm 7 mps 694 mmHg 52%
    01:00 +9°C° 0 mm 7 mps 694 mmHg 53%
    02:00 +9°C° 0.1 mm 6 mps 694 mmHg 55%
    03:00 +9°C° 0.1 mm 6 mps 694 mmHg 57%
    04:00 +9°C° 0 mm 6 mps 694 mmHg 61%
    05:00 +8°C° 1.1 mm 7 mps 694 mmHg 68%
    06:00 +6°C° 1.1 mm 7 mps 694 mmHg 76%
    07:00 +5°C° 1.1 mm 7 mps 694 mmHg 83%
    08:00 +5°C° 1.1 mm 7 mps 695 mmHg 84%
    09:00 +7°C° 1.1 mm 6 mps 695 mmHg 85%
    10:00 +7°C° 1.1 mm 6 mps 696 mmHg 86%
    11:00 +7°C° 0.5 mm 5 mps 696 mmHg 84%
    12:00 +7°C° 0.5 mm 5 mps 695 mmHg 83%
    13:00 +8°C° 0.5 mm 5 mps 695 mmHg 82%
    14:00 +7°C° 0.3 mm 5 mps 695 mmHg 83%
    15:00 +7°C° 0.3 mm 5 mps 695 mmHg 84%
    16:00 +7°C° 0.3 mm 5 mps 695 mmHg 85%
    17:00 +7°C° 0.9 mm 5 mps 695 mmHg 85%
    18:00 +7°C° 0.9 mm 5 mps 695 mmHg 85%
    19:00 +7°C° 0.9 mm 5 mps 695 mmHg 86%
    20:00 +7°C° 0.1 mm 5 mps 695 mmHg 86%
    21:00 +7°C° 0.1 mm 4 mps 696 mmHg 85%
    22:00 +7°C° 0.1 mm 4 mps 696 mmHg 85%
    23:00 +6°C° 0 mm 4 mps 695 mmHg 86%

    Tomorrow, 25 January, Saturday

    Time Temperature Precipitation Wind Pressure Humidity
    00:00 +6°C° 0 mm 4 mps 695 mmHg 86%
    01:00 +7°C° 0 mm 3 mps 695 mmHg 87%
    02:00 +6°C° 0 mm 4 mps 695 mmHg 86%
    03:00 +6°C° 0 mm 4 mps 695 mmHg 85%
    04:00 +6°C° 0 mm 4 mps 695 mmHg 84%
    05:00 +5°C° 0 mm 4 mps 695 mmHg 83%
    06:00 +5°C° 0 mm 3 mps 695 mmHg 82%
    07:00 +5°C° 0 mm 3 mps 695 mmHg 81%
    08:00 +7°C° 0 mm 3 mps 695 mmHg 74%
    09:00 +8°C° 0 mm 4 mps 696 mmHg 67%
    10:00 +10°C° 0 mm 4 mps 696 mmHg 61%
    11:00 +11°C° 0 mm 3 mps 696 mmHg 57%
    12:00 +12°C° 0 mm 3 mps 695 mmHg 54%
    13:00 +14°C° 0 mm 2 mps 695 mmHg 51%
    14:00 +14°C° 0 mm 2 mps 695 mmHg 48%
    15:00 +14°C° 0 mm 2 mps 695 mmHg 46%
    16:00 +13°C° 0 mm 3 mps 695 mmHg 44%
    17:00 +12°C° 0 mm 3 mps 695 mmHg 47%
    18:00 +11°C° 0 mm 3 mps 695 mmHg 50%
    19:00 +10°C° 0 mm 3 mps 695 mmHg 53%
    20:00 +9°C° 0 mm 3 mps 695 mmHg 53%
    21:00 +9°C° 0 mm 3 mps 695 mmHg 54%
    22:00 +8°C° 0 mm 3 mps 695 mmHg 55%
    23:00 +7°C° 0 mm 4 mps 695 mmHg 56%

    Day after tomorrow, 26 January, Sunday

    Time Temperature Precipitation Wind Pressure Humidity
    00:00 +7°C° 0 mm 4 mps 694 mmHg 57%
    01:00 +6°C° 0 mm 4 mps 694 mmHg 58%
    02:00 +6°C° 0 mm 4 mps 694 mmHg 58%
    03:00 +5°C° 0 mm 5 mps 694 mmHg 59%
    04:00 +5°C° 0 mm 5 mps 694 mmHg 59%
    05:00 +5°C° 0 mm 5 mps 694 mmHg 60%
    06:00 +3°C° 0 mm 5 mps 694 mmHg 61%
    07:00 +3°C° 0 mm 5 mps 694 mmHg 62%
    08:00 +5°C° 0 mm 5 mps 694 mmHg 57%
    09:00 +7°C° 0 mm 5 mps 695 mmHg 52%
    10:00 +8°C° 0 mm 5 mps 695 mmHg 47%
    11:00 +9°C° 0 mm 5 mps 694 mmHg 45%
    12:00 +11°C° 0 mm 4 mps 694 mmHg 43%
    13:00 +12°C° 0 mm 4 mps 693 mmHg 40%
    14:00 +12°C° 0 mm 4 mps 693 mmHg 40%
    15:00 +12°C° 0 mm 3 mps 692 mmHg 39%
    16:00 +13°C° 0 mm 3 mps 692 mmHg 38%
    17:00 +12°C° 0 mm 3 mps 692 mmHg 40%
    18:00 +11°C° 0 mm 4 mps 692 mmHg 41%
    19:00 +8°C° 0 mm 4 mps 693 mmHg 43%
    20:00 +9°C° 0 mm 3 mps 693 mmHg 43%
    21:00 +9°C° 0 mm 3 mps 693 mmHg 44%
    22:00 +8°C° 0 mm 2 mps 693 mmHg 44%
    23:00 +8°C° 0 mm 2 mps 693 mmHg 45%

    27 January, Monday

    Time Temperature Precipitation Wind Pressure Humidity
    00:00 +7°C° 0 mm 2 mps 693 mmHg 47%
    01:00 +7°C° 0 mm 2 mps 693 mmHg 48%
    02:00 +6°C° 0 mm 2 mps 692 mmHg 49%
    03:00 +6°C° 0 mm 2 mps 692 mmHg 49%
    04:00 +6°C° 0 mm 2 mps 692 mmHg 50%
    05:00 +5°C° 0 mm 2 mps 693 mmHg 50%
    06:00 +5°C° 0 mm 2 mps 693 mmHg 51%
    07:00 +5°C° 0 mm 2 mps 693 mmHg 51%
    08:00 +6°C° 0 mm 2 mps 694 mmHg 46%
    09:00 +7°C° 0 mm 2 mps 694 mmHg 42%
    10:00 +8°C° 0 mm 2 mps 695 mmHg 38%
    11:00 +9°C° 0 mm 2 mps 694 mmHg 36%
    12:00 +10°C° 0 mm 2 mps 694 mmHg 33%
    13:00 +12°C° 0 mm 1 mps 693 mmHg 31%
    14:00 +12°C° 0 mm 2 mps 693 mmHg 31%
    15:00 +12°C° 0 mm 2 mps 693 mmHg 31%
    16:00 +12°C° 0 mm 2 mps 693 mmHg 31%
    17:00 +12°C° 0 mm 2 mps 693 mmHg 36%
    18:00 +11°C° 0 mm 1 mps 693 mmHg 41%
    19:00 +10°C° 0 mm 1 mps 693 mmHg 46%
    20:00 +9°C° 0 mm 1 mps 694 mmHg 47%
    21:00 +9°C° 0 mm 1 mps 694 mmHg 48%
    22:00 +8°C° 0 mm 1 mps 694 mmHg 50%
    23:00 +7°C° 0 mm 2 mps 694 mmHg 49%

    28 January, Tuesday

    Time Temperature Precipitation Wind Pressure Humidity
    00:00 +6°C° 0 mm 2 mps 693 mmHg 49%
    01:00 +5°C° 0 mm 3 mps 693 mmHg 48%
    02:00 +4°C° 0 mm 3 mps 693 mmHg 47%
    03:00 +4°C° 0 mm 3 mps 693 mmHg 46%
    04:00 +3°C° 0 mm 3 mps 693 mmHg 45%
    05:00 +3°C° 0 mm 3 mps 693 mmHg 45%
    06:00 +2°C° 0 mm 3 mps 694 mmHg 45%
    07:00 +2°C° 0 mm 3 mps 694 mmHg 45%
    08:00 +3°C° 0 mm 3 mps 694 mmHg 41%
    09:00 +4°C° 0 mm 3 mps 695 mmHg 38%
    10:00 +7°C° 0 mm 3 mps 695 mmHg 34%
    11:00 +8°C° 0 mm 3 mps 695 mmHg 32%
    12:00 +9°C° 0 mm 2 mps 694 mmHg 29%
    13:00 +10°C° 0 mm 2 mps 694 mmHg 27%
    14:00 +10°C° 0 mm 2 mps 694 mmHg 27%
    15:00 +10°C° 0 mm 2 mps 694 mmHg 28%
    16:00 +10°C° 0 mm 2 mps 693 mmHg 28%
    17:00 +10°C° 0 mm 1 mps 694 mmHg 33%
    18:00 +10°C° 0 mm 1 mps 694 mmHg 37%
    19:00 +9°C° 0 mm 1 mps 694 mmHg 41%
    20:00 +8°C° 0 mm 1 mps 694 mmHg 45%
    21:00 +8°C° 0 mm 1 mps 694 mmHg 48%
    22:00 +6°C° 0 mm 2 mps 694 mmHg 52%
    23:00 +6°C° 0 mm 2 mps 694 mmHg 53%

    29 January, Wednesday

    Time Temperature Precipitation Wind Pressure Humidity
    00:00 +6°C° 0 mm 1 mps 694 mmHg 55%
    01:00 +6°C° 0 mm 1 mps 694 mmHg 56%
    02:00 +4°C° 0 mm 2 mps 694 mmHg 57%
    03:00 +4°C° 0 mm 2 mps 694 mmHg 59%
    04:00 +4°C° 0 mm 2 mps 694 mmHg 60%
    05:00 +3°C° 0 mm 2 mps 695 mmHg 60%
    06:00 +3°C° 0 mm 2 mps 695 mmHg 61%
    07:00 +3°C° 0 mm 2 mps 695 mmHg 61%
    08:00 +4°C° 0 mm 2 mps 696 mmHg 57%
    09:00 +5°C° 0 mm 2 mps 696 mmHg 54%
    10:00 +6°C° 0 mm 2 mps 697 mmHg 50%
    11:00 +8°C° 0 mm 1 mps 697 mmHg 48%
    12:00 +9°C° 0 mm 1 mps 696 mmHg 46%
    13:00 +9°C° 0 mm 1 mps 696 mmHg 44%
    14:00 +10°C° 0 mm 1 mps 696 mmHg 43%
    15:00 +9°C° 0 mm 0 mps 696 mmHg 42%
    16:00 +9°C° 0 mm 0 mps 696 mmHg 40%
    17:00 +9°C° 0 mm 0 mps 696 mmHg 45%
    18:00 +8°C° 0 mm 0 mps 697 mmHg 49%
    19:00 +7°C° 0 mm 0 mps 697 mmHg 53%
    20:00 +8°C° 0 mm 1 mps 697 mmHg 53%
    21:00 +8°C° 0 mm 1 mps 697 mmHg 53%
    22:00 +7°C° 0 mm 1 mps 698 mmHg 52%
    23:00 +6°C° 0 mm 2 mps 697 mmHg 51%
    Show more